Regional Weather Roundup
Issued by NWS

Home | Current Version | Previous Version | Graphics & Text | Print | Product List | Glossary On
Versions: 1 2 3 4 5 6 7 8 9 10 11 12 13 14 15 16 17 18 19 20 21 22 23 24 25 26 27 28 29 30 31 32 33 34 35 36 37 38 39 40 41 42 43 44 45 46 47 48 49 50
000
ASUS43 KLOT 200212
RWRIL

ILLINOIS REGIONAL WEATHER ROUNDUP
NATIONAL WEATHER SERVICE CHICAGO/ROMEOVILLE IL
800 PM CST THU JAN 19 2017

NOTE: "FAIR" INDICATES FEW OR NO CLOUDS BELOW 12,000 FEET WITH NO
SIGNIFICANT WEATHER AND/OR OBSTRUCTIONS TO VISIBILITY.

* THESE STATIONS ARE NOT UNDER NWS QUALITY CONTROL. THEY ALSO MAY NOT
  REPORT WEATHER SUCH AS PRECIPITATION OR FOG.

ILZ001-002-007-009-015-016-024-200300-
NORTHWEST ILLINOIS

CITY           SKY/WX    TMP DP  RH WIND       PRES   REMARKS
MOLINE         CLOUDY    38  36  92 E9        29.73F FOG     WCI  31
STERLING*      MIX PCPN  37  37 100 E12       29.77S FOG     WCI  29
SAVANNA*       DRIZZLE   37  36  99 E6        29.76F WCI  32
$$

ILZ003-004-008-010-011-017-018-200300-
NORTH CENTRAL ILLINOIS

CITY           SKY/WX    TMP DP  RH WIND       PRES   REMARKS
ROCKFORD       LGT RAIN  39  37  92 E5        29.80F FOG
FREEPORT*      MIX PCPN  35  35  99 E8        29.79F VSB 3/4 WCI  29
ROCHELLE*      LGT RAIN  37  36  98 E7        29.76F WCI  31
DE KALB*       DRIZZLE   37  37  98 E9        29.77F WCI  31
$$

ILZ005-006-012>014-019>023-200300-
NORTHEAST ILLINOIS

CITY           SKY/WX    TMP DP  RH WIND       PRES   REMARKS
CHICAGO-OHARE  LGT RAIN  38  37  97 E8        29.80F FOG     WCI  32
CHICAGO-MIDWAY LGT RAIN  38  36  92 E9        29.80F FOG     WCI  31
AURORA         LGT RAIN  39  37  92 E9        29.78F FOG     WCI  33
LANSING*       RAIN      38  38 100 E5        29.81F WCI  34
JOLIET*        RAIN      40  39  97 E8        29.79F
WAUKEGAN       LGT RAIN  37  37 100 E6        29.83R FOG     WCI  32
DUPAGE AIRPORT LGT RAIN  38  35  89 E7        29.79F FOG     WCI  33
KANKAKEE*      LGT RAIN  39  38  98 E8        29.78F WCI  33
WHEELING       LGT RAIN  38  36  92 E6        29.82F FOG     WCI  33
MORRIS*        LGT RAIN  38  37  94 E14       29.75F WCI  30
ROMEOVILLE*    DRIZZLE   38  38 100 SE6       29.80S WCI  33
NORTHERLY ISL    N/A     34  33  96 CALM        N/A
$$

LMZ740>746-200300-
SOUTHERN LAKE MICHIGAN

STATION/POSITION SKY/WX   TEMP    WIND        PRES    VSBY  WAVE
                          AIR SEA DIR/SP/G                  HT/PER
                          (F)     (DEG/KT/KT) (MB)    (MI)  (FT/S)
HARRISON CRIB              37     120/ 12/ 12   N/A
BURNHAM HARBOR             34      70/  3/  4   N/A
CALUMET HARBOR             35      80/  5/  6 1009.3F
BURNS HARBOR               39     100/  6/ 12 1010.5F
MICHIGAN CITY              39      90/  8/ 10   N/A
$$

ILZ025>027-034>036-040-047-049-050-058-095>099-200300-
WEST-CENTRAL ILLINOIS

CITY           SKY/WX    TMP DP  RH WIND       PRES   REMARKS
QUINCY         CLOUDY    43  43 100 E5        29.68F FOG
GALESBURG*     CLOUDY    38  38 100 E7        29.73S FOG     WCI  33
MACOMB*        CLOUDY    40  40 100 E7        29.74S FOG
JACKSONVILLE*  FOG       42  42  99 E7        29.69F VSB 1
PITTSFIELD*    FOG       44  44 100 NE5       29.69F VSB 1/4
$$

ILZ028>032-037-038-041>044-048-051>054-059>061-200300-
CENTRAL ILLINOIS

CITY           SKY/WX    TMP DP  RH WIND       PRES   REMARKS
PONTIAC        CLOUDY    40  40 100 E20G25    29.75F FOG
BLOOMINGTON    LGT RAIN  39  39 100 E12       29.74S FOG     WCI  32
DECATUR        LGT RAIN  42  42 100 E8        29.72F FOG
PEORIA         CLOUDY    40  40 100 E5        29.74F FOG
LACON*         CLOUDY    38  38 100 CALM      29.75R FOG
LINCOLN*       DRIZZLE   42  42 100 E6        29.72F
SPRINGFIELD    CLOUDY    44  43  96 E7        29.71F FOG
TAYLORVILLE    CLOUDY    43  42  99 E5        29.70F FOG
$$

ILZ033-039-045-046-055>057-062-063-200300-
EAST-CENTRAL ILLINOIS

CITY           SKY/WX    TMP DP  RH WIND       PRES   REMARKS
CHAMPAIGN      RAIN      43  41  93 E12       29.73F FOG
RANTOUL*       LGT RAIN  43  43  98 E12       29.74F
MATTOON        LGT RAIN  44  43  96 SE7       29.70F FOG
PARIS*         LGT RAIN  44  44 100 E10G17    29.73F
$$

ILZ079-100>102-200300-
SOUTHWEST ILLINOIS

CITY           SKY/WX    TMP DP  RH WIND       PRES   REMARKS
ALTON          FOG       45  45 100 NE6       29.68F VSB 1/4
BELLEVILLE     FOG       47  47 100 CALM      29.66F VSB 1/4
CAHOKIA*       FOG       47  46  97 CALM      29.67F VSB 3/4
SPARTA*        LGT RAIN  46  46 100 CALM      29.67F VSB 1/2
$$

ILZ064>066-069>071-074>076-080>082-084>086-088>090-092>094-200300-
SOUTH-CENTRAL ILLINOIS

CITY           SKY/WX    TMP DP  RH WIND       PRES   REMARKS
CARBONDALE     FOG       49  49 100 CALM      29.66F VSB 1/2
CAIRO*         CLOUDY    58  58  99 SE6       29.65F
EFFINGHAM*     DRIZZLE   46  46 100 NE5       29.71F
MARION         DRZL/FOG  54  54 100 CALM      29.67S VSB 1
MT. VERNON     LGT RAIN  47  47 100 NE5       29.67F FOG
CENTRALIA*     CLOUDY    47  47 100 E5        29.67F FOG
SALEM*         LGT RAIN  47  46  95 E3        29.68F
METROPOLIS*    FOG       55  55  99 CALM      29.69S VSB 1/2
$$

ILZ067-068-072-073-078-083-087-091-200300-
SOUTHEAST ILLINOIS

CITY           SKY/WX    TMP DP  RH WIND       PRES   REMARKS
LAWRENCEVILLE  RAIN      49  49 100 E7        29.71F FOG
FLORA*         DRIZZLE   49  48  97 E5        29.69F
FAIRFIELD*     LGT RAIN  48  48 100 CALM      29.67F
HARRISBURG*    LGT RAIN  53  53 100 SE10      29.67F
ROBINSON*      RAIN      46  46  99 E6        29.73F
CARMI*         LGT RAIN  55  55 100 SE15      29.67F
$$

ABBREVIATIONS USED IN REMARKS
   TC - TEMPERATURE IN CELSIUS
  WCI - WIND CHILL INDEX
   HX - HEAT INDEX
  VSB - VISIBILITY
$$





USA.gov is the U.S. government's official web portal to all federal, state and local government web resources and services.